Regional Weather Roundup
Issued by NWS

Home | Current Version | Previous Version | Graphics & Text | Print | Product List | Glossary On
Versions: 1 2 3 4 5 6 7 8 9 10 11 12 13 14 15 16 17 18 19 20 21 22 23 24 25 26 27 28 29 30 31 32 33 34 35 36 37 38 39 40 41 42 43 44 45 46 47 48 49 50
000
ASUS43 KLSX 292107
RWRMO

WEATHER SUMMARY FOR MISSOURI
NATIONAL WEATHER SERVICE SPRINGFIELD MO
400 PM CDT FRI AUG 29 2014

NOTE: "FAIR" INDICATES FEW OR NO CLOUDS BELOW 12,000 FEET WITH NO
       SIGNIFICANT WEATHER AND/OR OBSTRUCTIONS TO VISIBILITY.
       CURRENT SKY AND/OR WEATHER CONDITIONS ARE NOT AVAILABLE FOR
       CHILLICOTHE AND FARMINGTON.

MOZ001>031-035>038-043-044-053-054-292200-
...NORTHERN AND WESTERN MISSOURI...

CITY           SKY/WX    TMP DP  RH WIND       PRES   REMARKS
KANSAS CTY INT PTSUNNY   80  68  66 SW13      29.82F
KANSAS C DTWN  MOSUNNY   83  67  58 S12       29.81F
LEE`S SUMMIT   MOSUNNY   80  66  62 SW13G18   29.83F
ST JOSEPH      MOSUNNY   80  70  71 SW10      29.80F
CHILLICOTHE      N/A     77  71  82 S5        29.82F
KIRKSVILLE     CLOUDY    73  69  87 S8        29.84F

$$
MOZ066>068-077>081-088>096-101>105-292200-
...SOUTHWEST MISSOURI...

CITY           SKY/WX    TMP DP  RH WIND       PRES   REMARKS
SPRINGFIELD    PTSUNNY   86  62  44 W12       29.88R
JOPLIN         MOSUNNY   87  62  43 SW14G22   29.87F

$$
MOZ032>034-039>042-045>050-055>058-069>072-292200-
...CENTRAL MISSOURI...

CITY           SKY/WX    TMP DP  RH WIND       PRES   REMARKS
COLUMBIA       CLOUDY    77  72  84 SE5       29.86F
JEFFERSON CITY PTSUNNY   79  72  79 SE3       29.85R
ROLLA          CLOUDY    76  69  79 SW5       29.86R
SEDALIA        MOSUNNY   84  68  58 SW10G20   29.86F
WHITEMAN AFB   MOSUNNY   81  69  68 SW15      29.85S
OSAGE BEACH    CLOUDY    73  70  88 S6        29.88F

$$
MOZ051-052-059>065-292200-
...EAST CENTRAL MISSOURI...

CITY           SKY/WX    TMP DP  RH WIND       PRES   REMARKS
ST LOUIS INTL  MOSUNNY   92  65  40 S14       29.85F HX  94
SPIRIT OF STL  MOSUNNY   89  66  46 SE10      29.83F HX  91
ST CHARLES     SUNNY     90  67  46 S12       29.83F HX  93

$$
MOZ072>076-082>087-097>100-106>115-292200-
...SOUTH CENTRAL AND SOUTHEAST MISSOURI...

CITY           SKY/WX    TMP DP  RH WIND       PRES   REMARKS
CAPE GIRARDEAU SUNNY     88  67  49 S9G18     29.89F HX  91
FARMINGTON     MOSUNNY   91  63  38 S15G21    29.91S HX  92
POPLAR BLUFF   CLOUDY    83  68  60 S10G20    29.91R
WEST PLAINS    MOSUNNY   86  65  49 S10G20    29.92F

$$


USA.gov is the U.S. government's official web portal to all federal, state and local government web resources and services.